Date String (YYYY-MM-DD hh:mm:ss) UTC,Instrument flags,Ambient pressure (hPa),Sample flow (lpm),Bypass flow (lpm),Sample temperature (°C),Ambient temperature (°C),ASC tube jacket temperature (°C),LED temperature (°C),Box temperature (°C),Sample RH (%),Span deviation,Mass concentration (μg/m³),Mass concentration (μg/m³),Mass concentration (μg/m³)
DateTimeUTC,F1_M11,P_M11,Q1_M11,Q2_M11,T1_M11,T2_M11,T3_M11,T4_M11,T5_M11,U1_M11,ZSPAN_M11,X0_M11,X2_M11,X1_M11
2022-09-15 01:00:00,,0823.1,4.99,0.00,30.1,28.9,00.0,38.8,32.0,28.6,0000.0,0006.20,0003.02,0002.28
2022-09-15 01:01:00,,0823.1,5.01,0.00,30.1,28.9,00.0,38.8,32.0,28.4,0000.0,0007.20,0002.93,0002.23
2022-09-15 01:02:00,,0823.1,4.99,0.00,30.1,28.9,00.0,38.8,32.0,28.4,0000.0,0006.75,0002.78,0002.14
2022-09-15 01:03:00,,0823.1,5.01,0.00,30.2,28.9,00.0,38.9,32.0,28.7,0000.0,0006.55,0002.67,0002.06
2022-09-15 01:04:00,,0823.1,5.01,0.00,30.2,28.9,00.0,38.9,32.1,28.7,0000.0,0006.50,0002.57,0001.97
2022-09-15 01:05:00,,0823.1,4.99,0.00,30.2,29.0,00.0,38.9,32.1,28.5,0000.0,0006.54,0002.52,0001.87
2022-09-15 01:06:00,,0823.1,5.01,0.00,30.2,29.0,00.0,38.9,32.1,28.5,0000.0,0006.44,0002.43,0001.78
2022-09-15 01:07:00,,0823.0,4.99,0.00,30.2,28.7,00.0,38.9,32.1,28.5,0000.0,0006.43,0002.31,0001.69
2022-09-15 01:08:00,,0823.1,5.01,0.00,30.2,27.5,00.0,38.9,32.1,28.4,0000.0,0006.57,0002.25,0001.61
2022-09-15 01:09:00,,0823.1,5.01,0.00,30.2,26.9,00.0,38.8,32.0,28.4,0000.0,0006.62,0002.21,0001.53
2022-09-15 01:10:00,,0823.0,5.00,0.00,30.1,26.9,00.0,38.8,31.8,28.6,0000.0,0006.48,0002.10,0001.43
2022-09-15 01:11:00,,0823.0,4.99,0.00,30.0,27.2,00.0,38.8,31.7,28.8,0000.0,0005.01,0002.01,0001.35
2022-09-15 01:12:00,,0823.0,4.99,0.00,30.0,27.5,00.0,38.7,31.7,28.9,0000.0,0003.82,0001.93,0001.28
2022-09-15 01:13:00,,0822.9,5.00,0.00,30.0,27.7,00.0,38.7,31.7,28.9,0000.0,0003.96,0001.88,0001.23
2022-09-15 01:14:00,,0822.9,5.01,0.00,29.9,27.9,00.0,38.7,31.7,29.1,0000.0,0003.91,0001.82,0001.19
2022-09-15 01:15:00,,0822.9,5.00,0.00,29.9,28.1,00.0,38.7,31.7,29.0,0000.0,0003.98,0001.84,0001.14
2022-09-15 01:16:00,,0822.9,4.99,0.00,29.9,28.3,00.0,38.7,31.7,28.9,0000.0,0004.04,0001.80,0001.10
2022-09-15 01:17:00,,0822.9,5.01,0.00,29.9,28.4,00.0,38.7,31.7,29.0,0000.0,0004.18,0001.80,0001.05
2022-09-15 01:18:00,,0823.0,4.99,0.00,29.9,28.5,00.0,38.7,31.7,29.0,0000.0,0004.70,0001.79,0001.01
2022-09-15 01:19:00,,0823.0,5.00,0.00,30.0,28.5,00.0,38.7,31.8,28.7,0000.0,0005.01,0001.74,0000.97
2022-09-15 01:20:00,,0823.0,5.00,0.00,30.0,28.6,00.0,38.7,31.9,28.7,0000.0,0004.92,0001.69,0000.93
2022-09-15 01:21:00,,0823.0,5.00,0.00,30.0,28.7,00.0,38.7,31.9,28.5,0000.0,0005.42,0001.67,0000.91
2022-09-15 01:22:00,,0823.0,5.00,0.00,30.0,28.7,00.0,38.7,31.9,28.5,0000.0,0006.50,0001.76,0000.91
2022-09-15 01:23:00,,0823.0,5.01,0.00,30.0,28.7,00.0,38.8,31.9,28.4,0000.0,0007.30,0001.89,0000.91
2022-09-15 01:24:00,,0823.1,5.00,0.00,30.0,28.8,00.0,38.8,31.9,28.3,0000.0,0007.78,0001.96,0000.90
2022-09-15 01:25:00,,0823.1,5.00,0.00,30.1,28.8,00.0,38.8,32.0,28.2,0000.0,0008.20,0002.02,0000.89
2022-09-15 01:26:00,,0823.1,5.00,0.00,30.1,28.9,00.0,38.8,32.0,28.2,0000.0,0008.70,0002.01,0000.89
2022-09-15 01:27:00,,0823.1,5.01,0.00,30.1,28.9,00.0,38.8,32.0,28.1,0000.0,0008.76,0002.04,0000.90
2022-09-15 01:28:00,,0823.1,5.00,0.00,30.1,28.9,00.0,38.8,32.0,28.2,0000.0,0008.84,0002.08,0000.92
2022-09-15 01:29:00,,0823.1,5.01,0.00,30.2,29.0,00.0,38.9,32.0,28.2,0000.0,0008.94,0002.14,0000.95
2022-09-15 01:30:00,,0823.1,5.00,0.00,30.2,29.0,00.0,38.9,32.1,28.3,0000.0,0009.21,0002.17,0000.99
2022-09-15 01:31:00,,0823.1,4.99,0.00,30.2,29.0,00.0,38.9,32.1,28.1,0000.0,0009.94,0002.22,0001.03
2022-09-15 01:32:00,,0823.1,5.00,0.00,30.2,29.1,00.0,38.9,32.1,27.8,0000.0,0009.75,0002.29,0001.09
2022-09-15 01:33:00,,0823.1,4.99,0.00,30.2,29.1,00.0,38.9,32.1,27.9,0000.0,0009.19,0002.30,0001.15
2022-09-15 01:34:00,,0823.1,5.02,0.00,30.3,29.1,00.0,38.9,32.1,27.4,0000.0,0008.76,0002.26,0001.23
2022-09-15 01:35:00,,0823.1,4.99,0.00,30.3,28.5,00.0,38.9,32.1,27.2,0000.0,0008.25,0002.25,0001.34
2022-09-15 01:36:00,,0823.1,5.00,0.00,30.3,27.2,00.0,38.9,32.1,26.5,0000.0,0007.90,0002.26,0001.45
2022-09-15 01:37:00,,0823.1,5.01,0.00,30.2,26.8,00.0,38.9,32.0,25.9,0000.0,0007.21,0002.28,0001.56
2022-09-15 01:38:00,,0823.0,5.01,0.00,30.1,26.9,00.0,38.8,31.7,26.2,0000.0,0006.86,0002.29,0001.66
2022-09-15 01:39:00,,0823.1,5.00,0.00,30.0,27.3,00.0,38.8,31.7,26.1,0000.0,0006.55,0002.28,0001.73
2022-09-15 01:40:00,,0823.1,5.00,0.00,30.0,27.6,00.0,38.8,31.7,26.2,0000.0,0005.61,0002.25,0001.80
2022-09-15 01:41:00,,0823.1,5.00,0.00,30.0,27.8,00.0,38.8,31.7,26.1,0000.0,0004.70,0002.29,0001.87
2022-09-15 01:42:00,,0823.0,5.01,0.00,30.0,28.1,00.0,38.7,31.8,26.4,0000.0,0003.57,0002.30,0001.93
2022-09-15 01:43:00,,0823.1,4.99,0.00,30.0,28.2,00.0,38.7,31.7,26.3,0000.0,0003.21,0002.31,0001.97
2022-09-15 01:44:00,,0823.1,5.01,0.00,30.0,28.4,00.0,38.7,31.7,26.0,0000.0,0003.11,0002.30,0002.00
2022-09-15 01:45:00,,0823.1,5.00,0.00,30.0,28.5,00.0,38.7,31.8,26.4,0000.0,0003.71,0002.27,0001.99
2022-09-15 01:46:00,,0823.1,5.00,0.00,30.0,28.6,00.0,38.7,31.9,25.8,0000.0,0003.74,0002.23,0001.93
2022-09-15 01:47:00,,0823.1,5.00,0.00,30.0,28.6,00.0,38.7,31.9,25.7,0000.0,0003.68,0002.17,0001.87
2022-09-15 01:48:00,,0823.1,5.00,0.00,30.0,28.7,00.0,38.8,31.9,26.0,0000.0,0003.63,0002.12,0001.81
2022-09-15 01:49:00,,0823.1,4.99,0.00,30.1,28.8,00.0,38.8,31.9,26.2,0000.0,0003.57,0002.07,0001.76
2022-09-15 01:50:00,,0823.1,5.01,0.00,30.1,28.8,00.0,38.8,31.9,26.8,0000.0,0003.55,0002.04,0001.72
2022-09-15 01:51:00,,0823.1,4.97,0.00,30.1,28.9,00.0,38.8,32.0,28.2,0000.0,0003.66,0002.08,0001.70
2022-09-15 01:52:00,,0823.1,5.00,0.00,30.1,28.9,00.0,38.8,32.0,29.6,0000.0,0003.75,0002.06,0001.66
2022-09-15 01:53:00,,0823.2,5.01,0.00,30.1,28.9,00.0,38.8,32.0,28.4,0000.0,0004.47,0002.12,0001.63
2022-09-15 01:54:00,,0823.1,4.99,0.00,30.2,29.0,00.0,38.8,32.0,27.4,0000.0,0004.53,0002.09,0001.60
2022-09-15 01:55:00,,0823.1,5.02,0.00,30.2,29.0,00.0,38.9,32.1,27.1,0000.0,0004.56,0002.08,0001.58
2022-09-15 01:56:00,,0823.1,4.99,0.00,30.2,29.0,00.0,38.9,32.1,26.1,0000.0,0004.15,0002.05,0001.59
2022-09-15 01:57:00,,0823.2,4.99,0.00,30.2,29.1,00.0,38.9,32.1,26.8,0000.0,0003.81,0002.10,0001.62
2022-09-15 01:58:00,,0823.2,5.02,0.00,30.3,29.1,00.0,38.9,32.1,27.0,0000.0,0004.09,0002.19,0001.64
2022-09-15 01:59:00,,0823.2,4.99,0.00,30.3,29.0,00.0,38.9,32.1,26.4,0000.0,0004.12,0002.21,0001.65
